Weather History for Glens Falls, NY

Change the Weather History Date:

Thursday, October 31, 2013

  Actual Average Record
Temperature  
Mean Temperature 44 °F 42 °F  
Max Temperature 60 °F 53 °F 70 °F (1974)
Min Temperature 27 °F 31 °F 16 °F (2002)
Degree Days  
Heating Degree Days 21 23  
Month to date heating degree days 484 570  
Since 1 July heating degree days 769 855  
Cooling Degree Days 0 0  
Month to date cooling degree days 0 1  
Year to date cooling degree days 537 352  
Moisture  
Dew Point 41 °F    
Average Humidity 93    
Maximum Humidity 100    
Minimum Humidity 85    
Precipitation  
Precipitation 0.43 in 0.11 in 0.74 in (1994)
Month to date precipitation 2.21 3.51  
Year to date precipitation 29.91 32.70  
Sea Level Pressure  
Sea Level Pressure 30.03 in    
Wind  
Wind Speed 4 mph (SSW)    
Max Wind Speed 15 mph    
Max Gust Speed 22 mph    
Visibility 4 miles    
Events Rain    
T = Trace of Precipitation, MM = Missing Value Source: NWS Daily Summary

Daily Weather History Graph

Daily Weather History Graph

Search for Another Location

Airport:

Trip Planner

Search our weather history database for the weather conditions in past years. The results will help you decide how hot, cold, wet, or windy it might be!

Date:

Astronomy

Oct. 31, 2013 Rise Set
Actual Time 7:28 AM EDT 5:46 PM EDT
Civil Twilight 6:58 AM EDT 6:16 PM EDT
Nautical Twilight 6:25 AM EDT 6:50 PM EDT
Astronomical Twilight 5:52 AM EDT 7:23 PM EDT
Moon 4:10 AM EDT (10/31) 4:07 PM EDT (10/31)
Length of Visible Light 11h 17m
Length of Day
10h 18m
Waning Crescent, 10% of the Moon is Illuminated
Oct 31
Waning Crescent
Nov 3
New
Nov 10
First Quarter
Nov 17
Full
Nov 25
Last Quarter

Hourly Weather History & Observations

Time (EDT) Temp. Dew Point Humidity Pressure Visibility Wind Dir Wind Speed Gust Speed Precip Events Conditions
12:05 AM 28.4 °F 28.4 °F 100% 30.23 in 2.5 mi Calm Calm - N/A   Clear
12:13 AM 28.4 °F 26.6 °F 93% 30.24 in 8.0 mi Calm Calm - N/A   Clear
12:53 AM 30.0 °F 27.0 °F 88% 30.25 in 10.0 mi Calm Calm - N/A   Mostly Cloudy
1:14 AM 30.2 °F 28.4 °F 93% 30.22 in 5.0 mi Calm Calm - N/A   Mostly Cloudy
1:28 AM 28.4 °F 28.4 °F 100% 30.21 in 1.5 mi Calm Calm - N/A   Scattered Clouds
1:31 AM 28.4 °F 28.4 °F 100% 30.21 in 0.8 mi Calm Calm - N/A   Mist
1:38 AM 30.2 °F 28.4 °F 93% 30.20 in 1.2 mi Calm Calm - N/A   Partly Cloudy
1:46 AM 28.4 °F 26.6 °F 93% 30.20 in 10.0 mi Calm Calm - N/A   Clear
1:53 AM 28.0 °F 26.1 °F 92% 30.22 in 10.0 mi Calm Calm - N/A   Partly Cloudy
2:09 AM 28.4 °F 26.6 °F 93% 30.19 in 6.0 mi Calm Calm - N/A   Mostly Cloudy
2:17 AM 26.6 °F 26.6 °F 100% 30.20 in 7.0 mi Calm Calm - N/A   Mostly Cloudy
2:53 AM 28.0 °F 27.0 °F 96% 30.21 in 6.0 mi Calm Calm - N/A   Mostly Cloudy
3:35 AM 28.4 °F 28.4 °F 100% 30.17 in 9.0 mi Calm Calm - N/A   Scattered Clouds
3:53 AM 28.0 °F 27.0 °F 96% 30.19 in 10.0 mi Calm Calm - N/A   Clear
4:09 AM 28.4 °F 26.6 °F 93% 30.16 in 6.0 mi Calm Calm - N/A   Scattered Clouds
4:17 AM 28.4 °F 26.6 °F 93% 30.16 in 9.0 mi Calm Calm - N/A   Mostly Cloudy
4:53 AM 28.9 °F 28.0 °F 96% 30.17 in 6.0 mi Calm Calm - N/A   Overcast
5:09 AM 30.2 °F 28.4 °F 93% 30.16 in 7.0 mi Calm Calm - N/A   Overcast
5:53 AM 33.1 °F 30.9 °F 92% 30.16 in 6.0 mi Calm Calm - N/A   Overcast
6:53 AM 35.1 °F 33.1 °F 92% 30.17 in 6.0 mi Calm Calm - N/A   Overcast
7:53 AM 36.0 °F 34.0 °F 93% 30.16 in 5.0 mi Calm Calm - N/A   Overcast
8:05 AM 35.6 °F 35.6 °F 100% 30.13 in 5.0 mi Calm Calm - N/A   Overcast
8:53 AM 37.9 °F 36.0 °F 93% 30.14 in 5.0 mi Calm Calm - N/A   Overcast
9:53 AM 39.0 °F 37.0 °F 93% 30.12 in 4.0 mi Calm Calm - 0.00 in Rain Light Rain
10:53 AM 41.0 °F 39.0 °F 93% 30.08 in 3.0 mi Calm Calm - 0.00 in Rain Light Rain
11:15 AM 41.0 °F 39.2 °F 93% 30.05 in 2.5 mi Calm Calm - 0.00 in   Overcast
11:53 AM 42.1 °F 41.0 °F 96% 30.06 in 2.5 mi Calm Calm - 0.00 in   Overcast
12:12 PM 42.8 °F 41.0 °F 93% 30.02 in 2.5 mi Calm Calm - 0.00 in Rain Light Rain
12:30 PM 42.8 °F 42.8 °F 100% 30.00 in 1.5 mi Calm Calm - 0.02 in Rain Light Rain
12:45 PM 42.8 °F 42.8 °F 100% 30.00 in 2.0 mi Calm Calm - 0.02 in Rain Light Rain
12:53 PM 44.1 °F 43.0 °F 96% 30.01 in 1.8 mi Calm Calm - 0.02 in Rain Light Rain
1:34 PM 44.6 °F 44.6 °F 100% 29.96 in 0.8 mi Calm Calm - 0.03 in Rain Light Rain
1:53 PM 48.0 °F 46.9 °F 96% 29.96 in 1.0 mi Calm Calm - 0.05 in Rain Light Rain
2:15 PM 51.8 °F 48.2 °F 88% 29.93 in 2.0 mi SSW 6.9 mph - 0.00 in Rain Light Rain
2:34 PM 51.8 °F 50.0 °F 94% 29.93 in 3.0 mi SSW 9.2 mph - 0.00 in Rain Light Rain
2:53 PM 53.1 °F 51.1 °F 93% 29.93 in 3.0 mi SSW 9.2 mph 20.7 mph 0.01 in Rain Light Rain
3:53 PM 54.0 °F 53.1 °F 97% 29.91 in 4.0 mi SSW 6.9 mph - 0.00 in Rain Light Rain
4:44 PM 53.6 °F 53.6 °F 100% 29.87 in 2.5 mi SW 6.9 mph - 0.01 in Rain Light Rain
4:53 PM 54.0 °F 53.1 °F 97% 29.89 in 2.5 mi SSW 5.8 mph - 0.02 in Rain Light Rain
5:42 PM 55.4 °F 53.6 °F 94% 29.85 in 4.0 mi SSW 8.1 mph - 0.03 in Rain Light Rain
5:53 PM 55.0 °F 54.0 °F 96% 29.87 in 3.0 mi South 8.1 mph - 0.05 in Rain Rain
6:02 PM 55.4 °F 53.6 °F 94% 29.85 in 2.0 mi SSW 8.1 mph - 0.02 in Rain Light Rain
6:17 PM 55.4 °F 55.4 °F 100% 29.84 in 1.8 mi SSW 8.1 mph 17.3 mph 0.04 in Rain Light Rain
6:27 PM 55.4 °F 55.4 °F 100% 29.84 in 2.5 mi SSW 9.2 mph - 0.05 in Rain Light Rain
6:39 PM 55.4 °F 55.4 °F 100% 29.84 in 4.0 mi SSW 6.9 mph 17.3 mph 0.06 in Rain Light Rain
6:53 PM 55.9 °F 55.0 °F 97% 29.84 in 4.0 mi South 10.4 mph - 0.07 in Rain Light Rain
7:53 PM 55.9 °F 55.0 °F 97% 29.82 in 3.0 mi SSW 10.4 mph - 0.02 in Rain Light Rain
8:53 PM 57.0 °F 55.9 °F 96% 29.78 in 3.0 mi SSW 8.1 mph - 0.02 in Rain Light Rain
9:53 PM 57.9 °F 57.0 °F 97% 29.75 in 3.0 mi SW 6.9 mph - 0.04 in Rain Light Rain
10:09 PM 57.2 °F 57.2 °F 100% 29.73 in 2.5 mi SSW 6.9 mph - 0.02 in Rain Light Rain
10:53 PM 60.1 °F 57.9 °F 93% 29.70 in 3.0 mi South 9.2 mph 18.4 mph 0.06 in Rain Light Rain
11:53 PM 60.1 °F 57.9 °F 93% 29.65 in 4.0 mi South 10.4 mph - 0.02 in Rain Light Rain